Regional Weather Roundup
Issued by NWS

Home | Current Version | Previous Version | Graphics & Text | Print | Product List | Glossary On
Versions: 1 2 3 4 5 6 7 8 9 10 11 12 13 14 15 16 17 18 19 20 21 22 23 24 25 26 27 28 29 30 31 32 33 34 35 36 37 38 39 40 41 42 43 44 45 46 47 48 49 50
000
ASUS43 KLOT 251001
RWRIL

ILLINOIS REGIONAL WEATHER ROUNDUP
NATIONAL WEATHER SERVICE CHICAGO/ROMEOVILLE IL
500 AM CDT MON MAY 25 2015

NOTE: "FAIR" INDICATES FEW OR NO CLOUDS BELOW 12,000 FEET WITH NO
SIGNIFICANT WEATHER AND/OR OBSTRUCTIONS TO VISIBILITY.

* THESE STATIONS ARE NOT UNDER NWS QUALITY CONTROL. THEY ALSO MAY NOT
  REPORT WEATHER SUCH AS PRECIPITATION OR FOG.

ILZ001-002-007-009-015-016-024-251100-
NORTHWEST ILLINOIS

CITY           SKY/WX    TMP DP  RH WIND       PRES   REMARKS
MOLINE         CLOUDY    66  63  90 W10       29.76R
STERLING*      CLOUDY    68  63  83 S12G21    29.77R
$$

ILZ003-004-008-010-011-017-018-251100-
NORTH CENTRAL ILLINOIS

CITY           SKY/WX    TMP DP  RH WIND       PRES   REMARKS
ROCKFORD       CLOUDY    68  63  84 S22G32    29.79F
$$

ILZ005-006-012>014-019>023-251100-
NORTHEAST ILLINOIS

CITY           SKY/WX    TMP DP  RH WIND       PRES   REMARKS
CHICAGO-OHARE  CLOUDY    71  62  73 S21G29    29.83F
CHICAGO-MIDWAY CLOUDY    73  63  70 S14G28    29.85S
AURORA         CLOUDY    69  61  75 S17G25    29.83F
WAUKEGAN       CLOUDY    69  59  70 S10       29.82F
DUPAGE AIRPORT CLOUDY    68  61  78 S15       29.83F
WHEELING       CLOUDY    70  61  73 S13       29.84F
NORTHERLY ISL    N/A     72  61  68 S12         N/A
$$

LMZ740>746-251100-
SOUTHERN LAKE MICHIGAN

STATION/POSITION SKY/WX   TEMP    WIND        PRES    VSBY  WAVE
                          AIR SEA DIR/SP/G                  HT/PER
                          (F)     (DEG/KT/KT) (MB)    (MI)  (FT/S)
SOUTHERN BUOY              49 38  170/ 14/ 16 1011.3S         1/ 3
HARRISON CRIB              70     190/ 18/ 23   N/A
BURNHAM HARBOR             73     190/ 13/ 18   N/A
CALUMET HARBOR             72     180/  9/ 14   N/A
BURNS HARBOR               71     190/ 13/ 16 1012.5R
MICHIGAN CITY              73     150/ 14/ 19   N/A
MICHIGAN CITY 6N           66 53  190/ 12/ 16   N/A           2/ 2
ST. JOSEPH                 66 54  210/ 14/ 16   N/A           3/ 3
$$

ILZ025>027-034>036-040-047-049-050-058-095>099-251100-
WEST-CENTRAL ILLINOIS

CITY           SKY/WX    TMP DP  RH WIND       PRES   REMARKS
QUINCY         CLOUDY    65  63  93 SW12      29.84R
$$

ILZ028>032-037-038-041>044-048-051>054-059>061-251100-
CENTRAL ILLINOIS

CITY           SKY/WX    TMP DP  RH WIND       PRES   REMARKS
DECATUR        CLOUDY    70  65  84 S18G26    29.90S
PEORIA         CLOUDY    70  65  84 S16G24    29.82R
SPRINGFIELD    CLOUDY    69  65  86 S16       29.87R
TAYLORVILLE    NOT AVBL
$$

ILZ033-039-045-046-055>057-062-063-251100-
EAST-CENTRAL ILLINOIS

CITY           SKY/WX    TMP DP  RH WIND       PRES   REMARKS
CHAMPAIGN      CLOUDY    70  65  84 S18G30    29.92R
MATTOON        LGT RAIN  69  66  90 S12G21    29.93S
$$

ILZ079-100>102-251100-
SOUTHWEST ILLINOIS

CITY           SKY/WX    TMP DP  RH WIND       PRES   REMARKS
BELLEVILLE     CLOUDY    69  69  99 S14       29.91R
CAHOKIA*       CLOUDY    70  65  84 S9        29.90R
$$

ILZ064>066-069>071-074>076-080>082-084>086-088>090-092>094-251100-
SOUTH-CENTRAL ILLINOIS

CITY           SKY/WX    TMP DP  RH WIND       PRES   REMARKS
CARBONDALE     CLOUDY    69  66  90 S14       29.99R
MT. VERNON     CLOUDY    70  63  78 S15       29.99R
$$

ILZ067-068-072-073-078-083-087-091-251100-
SOUTHEAST ILLINOIS

CITY           SKY/WX    TMP DP  RH WIND       PRES   REMARKS
LAWRENCEVILLE  LGT RAIN  69  66  90 S16       30.00F
$$

ABBREVIATIONS USED IN REMARKS
   TC - TEMPERATURE IN CELSIUS
  WCI - WIND CHILL INDEX
   HX - HEAT INDEX
  VSB - VISIBILITY
$$




USA.gov is the U.S. government's official web portal to all federal, state and local government web resources and services.